STARLINK-34035, 63937

Orbit data source: Space-Track

STARLINK-34035, 63937 is a payload satellite owned by SpaceX/Seattle (US) in LEO that was launched on Tue, 13 May 2025 UTC via an FALCON 9 launch vehicle from the Air Force Western Test Range (AFWTR). Payload-class satellites include a variety of spacecraft equipped with specific instruments for various scientific and technological missions. These include communications satellites like Starlink; space stations such as the ISS; scientific satellites like the Hubble; Earth observation satellites from companies like Planet Labs, Umbra, and HawkEye 360; GPS; miniature CubeSats for education and research; and military/defense satellites.

Loading next visibility...
Identifier
63937, 2025-098M
Orbit
LEO
Country
Flag of USUS
Related business
Manufacturer
SpaceX/Seattle
Mission
Operational Commercial Communications
Bus & Motor
STARLINK V2MO, Unknown motor
Mass
575 kg wet, ~530 kg dry
Launch date (UTC)
2025-05-13 (1 year ago)
Launch vehicle
FALCON 9
Launch site
Air Force Western Test Range (AFWTR)
Object type
Payload
Rocket body
Debris
Shape & HBR
Box + 2 Pan, 17.7 m
Radar Cross Section
36.964 m², Large (>1 m²)

Expand to show TLE details & history
Last TLE update: 16 hours ago

TLE from 16 hours ago
0 STARLINK-34035
1 63937U 25098M   26171.30727690  .00000809  00000-0  75540-4 0  9995
2 63937  70.0015  15.7170 0002931 264.1860  95.8965 14.98338671 61926
Epoch: 2026-06-20T07:22Z
TLE epoch observation values (Epoch: 2026-06-20T07:22:28.724Z)
Latitude
-0°
Longitude
-3.42646°
Altitude
574.663 km
Speed
7.574 km/s
True Right ascension
01h 02m 52s
True Declination
0° 00' 00"
Sunlit
Object was in daylight at epoch
Visualization orbit readout
Latitude
Unknown
Longitude
Unknown
Altitude
Unknown
Speed
Unknown
Apparent Right ascension
Unknown
Apparent Declination
Unknown
Sunlit
N/A
Visualization observer readout
Local Sidereal Time
10:20:20
Azimuth
Unknown
Elevation
Unknown
Doppler factor
Unknown
Orbital elements
Apogee altitude
572.014 km
Perigee altitude
567.941 km
Semi-major axis
6,948.114 km
Eccentricity
0.00029
Inclination
70.0015°
RAAN
15.717°
Arg. of periapsis
264.186°
True anomaly
95.92991°
Mean anomaly
95.8965°
Eccentric anomaly
95.9132°
Mean motion
3.74751 °/min
Orbital period
96.06 mins
BSTAR
0.00007554
Loading maneuver chart data...
Computing Atmospheric mass density...
Loading historical data...
Loading historical data...
Loading historical data...
Loading historical data...
Loading historical data...
Loading historical data...
Loading historical data...

Documentation

Showing up to 5 results
|